Time,TemperatureF,DewpointF,PressureIn,WindDirection,WindDirectionDegrees,WindSpeedMPH,WindSpeedGustMPH,Humidity,HourlyPrecipIn,Conditions,Clouds,dailyrainin,SoftwareType,DateUTC
2013-04-27 00:03:00,50.0,41.0,30.32,South,171,0.0,0.0,70,0.00,,,0.00,,2013-04-27 04:03:00,
2013-04-27 00:13:00,50.0,41.0,30.32,South,171,0.0,0.0,70,0.00,,,0.00,,2013-04-27 04:13:00,
2013-04-27 00:22:00,50.0,41.0,30.33,South,171,0.0,1.0,70,0.00,,,0.00,,2013-04-27 04:22:00,
2013-04-27 00:33:00,50.0,41.0,30.32,South,171,0.0,0.0,70,0.00,,,0.00,,2013-04-27 04:33:00,
2013-04-27 00:43:00,50.0,41.0,30.32,South,171,0.0,0.0,70,0.00,,,0.00,,2013-04-27 04:43:00,
2013-04-27 00:52:00,49.0,40.0,30.33,South,171,0.0,1.0,71,0.00,,,0.00,,2013-04-27 04:52:00,
2013-04-27 01:02:00,49.0,41.0,30.33,South,171,0.0,0.0,74,0.00,,,0.00,,2013-04-27 05:02:00,
2013-04-27 01:12:00,49.0,41.0,30.33,South,171,0.0,0.0,74,0.00,,,0.00,,2013-04-27 05:12:00,
2013-04-27 01:22:00,48.0,40.0,30.33,South,171,0.0,1.0,74,0.00,,,0.00,,2013-04-27 05:22:00,
2013-04-27 01:32:00,47.0,40.0,30.34,South,171,0.0,0.0,76,0.00,,,0.00,,2013-04-27 05:32:00,
2013-04-27 01:42:00,47.0,40.0,30.34,South,171,0.0,0.0,76,0.00,,,0.00,,2013-04-27 05:42:00,
2013-04-27 01:52:00,46.0,40.0,30.34,South,171,0.0,0.0,78,0.00,,,0.00,,2013-04-27 05:52:00,
2013-04-27 02:02:00,46.0,40.0,30.34,South,171,0.0,0.0,78,0.00,,,0.00,,2013-04-27 06:02:00,
2013-04-27 02:12:00,46.0,40.0,30.34,South,171,0.0,0.0,78,0.00,,,0.00,,2013-04-27 06:12:00,
2013-04-27 02:22:00,46.0,40.0,30.34,South,171,0.0,0.0,78,0.00,,,0.00,,2013-04-27 06:22:00,
2013-04-27 02:32:00,45.0,39.0,30.34,South,171,0.0,0.0,80,0.00,,,0.00,,2013-04-27 06:32:00,
2013-04-27 02:42:00,45.0,39.0,30.34,South,171,0.0,0.0,80,0.00,,,0.00,,2013-04-27 06:42:00,
2013-04-27 02:52:00,44.0,39.0,30.33,South,171,0.0,0.0,82,0.00,,,0.00,,2013-04-27 06:52:00,
2013-04-27 03:01:00,43.0,38.0,30.33,South,171,0.0,0.0,83,0.00,,,0.00,,2013-04-27 07:01:00,
2013-04-27 03:11:00,43.0,38.0,30.33,South,171,0.0,0.0,83,0.00,,,0.00,,2013-04-27 07:11:00,
2013-04-27 03:21:00,43.0,39.0,30.32,South,171,0.0,0.0,85,0.00,,,0.00,,2013-04-27 07:21:00,
2013-04-27 03:32:00,42.0,38.0,30.32,South,171,0.0,0.0,85,0.00,,,0.00,,2013-04-27 07:32:00,
2013-04-27 03:42:00,42.0,38.0,30.32,South,171,0.0,0.0,85,0.00,,,0.00,,2013-04-27 07:42:00,
2013-04-27 03:52:00,42.0,38.0,30.32,South,171,0.0,0.0,86,0.00,,,0.00,,2013-04-27 07:52:00,
2013-04-27 04:01:00,41.0,37.0,30.31,South,171,0.0,0.0,86,0.00,,,0.00,,2013-04-27 08:01:00,
2013-04-27 04:11:00,41.0,37.0,30.31,South,171,0.0,0.0,86,0.00,,,0.00,,2013-04-27 08:11:00,
2013-04-27 04:21:00,41.0,37.0,30.31,South,171,0.0,0.0,87,0.00,,,0.00,,2013-04-27 08:21:00,
2013-04-27 04:33:00,41.0,38.0,30.30,South,171,0.0,0.0,88,0.00,,,0.00,,2013-04-27 08:33:00,
2013-04-27 04:41:00,41.0,38.0,30.30,South,171,0.0,0.0,88,0.00,,,0.00,,2013-04-27 08:41:00,
2013-04-27 04:51:00,40.0,37.0,30.30,South,171,0.0,0.0,88,0.00,,,0.00,,2013-04-27 08:51:00,
2013-04-27 05:01:00,40.0,37.0,30.30,South,171,0.0,0.0,89,0.00,,,0.00,,2013-04-27 09:01:00,
2013-04-27 05:11:00,40.0,37.0,30.30,South,171,0.0,0.0,89,0.00,,,0.00,,2013-04-27 09:11:00,
2013-04-27 05:21:00,40.0,37.0,30.30,South,171,0.0,0.0,90,0.00,,,0.00,,2013-04-27 09:21:00,
2013-04-27 05:33:00,40.0,37.0,30.30,South,171,0.0,0.0,90,0.00,,,0.00,,2013-04-27 09:33:00,
2013-04-27 05:42:00,40.0,37.0,30.30,South,171,0.0,0.0,90,0.00,,,0.00,,2013-04-27 09:42:00,
2013-04-27 05:53:00,39.0,36.0,30.30,South,171,0.0,0.0,90,0.00,,,0.00,,2013-04-27 09:53:00,
2013-04-27 06:02:00,39.0,36.0,30.30,South,171,0.0,0.0,90,0.00,,,0.00,,2013-04-27 10:02:00,
2013-04-27 06:12:00,39.0,36.0,30.30,South,171,0.0,0.0,90,0.00,,,0.00,,2013-04-27 10:12:00,
2013-04-27 06:22:00,38.0,36.0,30.30,South,171,0.0,0.0,91,0.00,,,0.00,,2013-04-27 10:22:00,
2013-04-27 06:32:00,38.0,36.0,30.29,South,171,0.0,0.0,92,0.00,,,0.00,,2013-04-27 10:32:00,
2013-04-27 06:42:00,38.0,36.0,30.29,South,171,0.0,0.0,92,0.00,,,0.00,,2013-04-27 10:42:00,
2013-04-27 06:52:00,38.0,36.0,30.29,South,171,0.0,0.0,91,0.00,,,0.00,,2013-04-27 10:52:00,
2013-04-27 07:02:00,38.0,36.0,30.30,South,171,0.0,0.0,91,0.00,,,0.00,,2013-04-27 11:02:00,
2013-04-27 07:12:00,38.0,36.0,30.30,South,171,0.0,0.0,91,0.00,,,0.00,,2013-04-27 11:12:00,
2013-04-27 07:22:00,38.0,36.0,30.30,South,171,0.0,0.0,91,0.00,,,0.00,,2013-04-27 11:22:00,
2013-04-27 07:32:00,38.0,36.0,30.30,South,171,0.0,0.0,92,0.00,,,0.00,,2013-04-27 11:32:00,
2013-04-27 07:42:00,38.0,36.0,30.30,South,171,0.0,0.0,92,0.00,,,0.00,,2013-04-27 11:42:00,
2013-04-27 07:52:00,38.0,36.0,30.30,South,171,0.0,0.0,93,0.00,,,0.00,,2013-04-27 11:52:00,
2013-04-27 08:01:00,38.0,36.0,30.30,South,171,0.0,0.0,93,0.00,,,0.00,,2013-04-27 12:01:00,
2013-04-27 08:11:00,38.0,36.0,30.30,South,171,0.0,0.0,93,0.00,,,0.00,,2013-04-27 12:11:00,
2013-04-27 08:22:00,39.0,37.0,30.29,South,171,0.0,0.0,94,0.00,,,0.00,,2013-04-27 12:22:00,
2013-04-27 08:32:00,40.0,38.0,30.30,South,171,0.0,0.0,94,0.00,,,0.00,,2013-04-27 12:32:00,
2013-04-27 08:42:00,40.0,38.0,30.30,South,171,0.0,0.0,94,0.00,,,0.00,,2013-04-27 12:42:00,
2013-04-27 08:52:00,42.0,41.0,30.30,South,171,0.0,0.0,95,0.00,,,0.00,,2013-04-27 12:52:00,
2013-04-27 09:02:00,46.0,42.0,30.30,South,170,0.0,2.0,87,0.00,,,0.00,,2013-04-27 13:02:00,
2013-04-27 09:11:00,46.0,42.0,30.30,South,170,0.0,2.0,87,0.00,,,0.00,,2013-04-27 13:11:00,
2013-04-27 09:21:00,49.0,42.0,30.30,SSE,167,0.0,2.0,77,0.00,,,0.00,,2013-04-27 13:21:00,
2013-04-27 09:32:00,52.0,44.0,30.30,SSE,166,0.0,2.0,75,0.00,,,0.00,,2013-04-27 13:32:00,
2013-04-27 09:42:00,52.0,44.0,30.30,SSE,166,0.0,2.0,75,0.00,,,0.00,,2013-04-27 13:42:00,
2013-04-27 09:52:00,53.0,44.0,30.30,SSE,163,0.0,2.0,72,0.00,,,0.00,,2013-04-27 13:52:00,
2013-04-27 10:02:00,55.0,45.0,30.29,South,179,0.0,1.0,68,0.00,,,0.00,,2013-04-27 14:02:00,
2013-04-27 10:11:00,55.0,45.0,30.29,South,179,0.0,1.0,68,0.00,,,0.00,,2013-04-27 14:11:00,
2013-04-27 10:21:00,56.0,45.0,30.28,South,179,0.0,2.0,67,0.00,,,0.00,,2013-04-27 14:21:00,
2013-04-27 10:32:00,58.0,47.0,30.27,South,180,0.0,2.0,66,0.00,,,0.00,,2013-04-27 14:32:00,
2013-04-27 10:42:00,58.0,47.0,30.27,South,180,0.0,2.0,66,0.00,,,0.00,,2013-04-27 14:42:00,
2013-04-27 10:52:00,59.0,47.0,30.27,East,96,2.0,5.0,64,0.00,,,0.00,,2013-04-27 14:52:00,
2013-04-27 11:01:00,60.0,47.0,30.26,ESE,115,1.0,6.0,62,0.00,,,0.00,,2013-04-27 15:01:00,
2013-04-27 11:12:00,60.0,47.0,30.26,ESE,115,1.0,6.0,62,0.00,,,0.00,,2013-04-27 15:12:00,
2013-04-27 11:22:00,61.0,47.0,30.25,SE,137,1.0,8.0,60,0.00,,,0.00,,2013-04-27 15:22:00,
2013-04-27 11:33:00,61.0,46.0,30.25,South,177,2.0,6.0,58,0.00,,,0.00,,2013-04-27 15:33:00,
2013-04-27 11:42:00,61.0,46.0,30.25,South,177,2.0,6.0,58,0.00,,,0.00,,2013-04-27 15:42:00,
2013-04-27 11:52:00,62.0,46.0,30.25,ENE,59,2.0,8.0,55,0.00,,,0.00,,2013-04-27 15:52:00,
2013-04-27 12:03:00,62.0,45.0,30.25,SE,126,3.0,7.0,53,0.00,,,0.00,,2013-04-27 16:03:00,
2013-04-27 12:13:00,62.0,45.0,30.25,SE,126,3.0,7.0,53,0.00,,,0.00,,2013-04-27 16:13:00,
2013-04-27 12:22:00,63.0,45.0,30.24,ESE,119,3.0,8.0,51,0.00,,,0.00,,2013-04-27 16:22:00,
2013-04-27 12:32:00,63.0,45.0,30.24,ENE,65,1.0,11.0,51,0.00,,,0.00,,2013-04-27 16:32:00,
2013-04-27 12:42:00,63.0,45.0,30.24,ENE,65,1.0,11.0,51,0.00,,,0.00,,2013-04-27 16:42:00,
2013-04-27 12:52:00,63.0,43.0,30.23,SE,140,4.0,7.0,48,0.00,,,0.00,,2013-04-27 16:52:00,
2013-04-27 13:02:00,64.0,43.0,30.23,SE,140,6.0,11.0,46,0.00,,,0.00,,2013-04-27 17:02:00,
2013-04-27 13:12:00,64.0,43.0,30.23,SE,140,6.0,11.0,46,0.00,,,0.00,,2013-04-27 17:12:00,
2013-04-27 13:22:00,64.0,41.0,30.23,ESE,116,7.0,16.0,43,0.00,,,0.00,,2013-04-27 17:22:00,
2013-04-27 13:32:00,64.0,41.0,30.23,SE,130,5.0,12.0,43,0.00,,,0.00,,2013-04-27 17:32:00,
2013-04-27 13:42:00,64.0,41.0,30.23,SE,130,5.0,12.0,43,0.00,,,0.00,,2013-04-27 17:42:00,
2013-04-27 13:52:00,65.0,41.0,30.22,SSE,165,4.0,8.0,42,0.00,,,0.00,,2013-04-27 17:52:00,
2013-04-27 14:02:00,65.0,41.0,30.22,ESE,121,6.0,10.0,42,0.00,,,0.00,,2013-04-27 18:02:00,
2013-04-27 14:12:00,65.0,41.0,30.22,ESE,121,6.0,10.0,42,0.00,,,0.00,,2013-04-27 18:12:00,
2013-04-27 14:22:00,66.0,43.0,30.21,East,94,3.0,8.0,43,0.00,,,0.00,,2013-04-27 18:22:00,
2013-04-27 14:32:00,66.0,41.0,30.21,SW,233,3.0,10.0,40,0.00,,,0.00,,2013-04-27 18:32:00,
2013-04-27 14:42:00,66.0,41.0,30.21,SW,233,3.0,10.0,40,0.00,,,0.00,,2013-04-27 18:42:00,
2013-04-27 14:52:00,66.0,42.0,30.20,South,191,5.0,9.0,42,0.00,,,0.00,,2013-04-27 18:52:00,
2013-04-27 15:02:00,67.0,40.0,30.19,ESE,112,5.0,11.0,37,0.00,,,0.00,,2013-04-27 19:02:00,
2013-04-27 15:11:00,67.0,40.0,30.19,ESE,112,5.0,11.0,37,0.00,,,0.00,,2013-04-27 19:11:00,
2013-04-27 15:21:00,67.0,39.0,30.18,SW,235,4.0,10.0,36,0.00,,,0.00,,2013-04-27 19:21:00,
2013-04-27 15:32:00,67.0,39.0,30.18,SW,218,3.0,14.0,36,0.00,,,0.00,,2013-04-27 19:32:00,
2013-04-27 15:42:00,67.0,39.0,30.18,SW,218,3.0,14.0,36,0.00,,,0.00,,2013-04-27 19:42:00,
2013-04-27 15:52:00,67.0,41.0,30.17,SSE,157,3.0,12.0,38,0.00,,,0.00,,2013-04-27 19:52:00,
2013-04-27 16:02:00,68.0,39.0,30.16,SE,142,4.0,11.0,35,0.00,,,0.00,,2013-04-27 20:02:00,
2013-04-27 16:11:00,68.0,39.0,30.16,SE,142,4.0,11.0,35,0.00,,,0.00,,2013-04-27 20:11:00,
2013-04-27 16:21:00,67.0,38.0,30.15,SSE,159,4.0,9.0,35,0.00,,,0.00,,2013-04-27 20:21:00,
2013-04-27 16:32:00,67.0,40.0,30.14,SW,232,3.0,10.0,37,0.00,,,0.00,,2013-04-27 20:32:00,
2013-04-27 16:42:00,67.0,40.0,30.14,SW,232,3.0,10.0,37,0.00,,,0.00,,2013-04-27 20:42:00,
2013-04-27 16:52:00,68.0,39.0,30.13,East,101,6.0,12.0,34,0.00,,,0.00,,2013-04-27 20:52:00,
2013-04-27 17:02:00,68.0,41.0,30.12,South,181,3.0,9.0,38,0.00,,,0.00,,2013-04-27 21:02:00,
2013-04-27 17:11:00,68.0,41.0,30.12,South,181,3.0,9.0,38,0.00,,,0.00,,2013-04-27 21:11:00,
2013-04-27 17:21:00,68.0,41.0,30.12,SSW,208,5.0,19.0,37,0.00,,,0.00,,2013-04-27 21:21:00,
2013-04-27 17:33:00,68.0,41.0,30.11,ESE,121,5.0,10.0,37,0.00,,,0.00,,2013-04-27 21:33:00,
2013-04-27 17:42:00,68.0,41.0,30.11,ESE,121,5.0,10.0,37,0.00,,,0.00,,2013-04-27 21:42:00,
2013-04-27 17:53:00,68.0,40.0,30.11,SE,146,7.0,13.0,36,0.00,,,0.00,,2013-04-27 21:53:00,
2013-04-27 18:02:00,68.0,41.0,30.11,SSW,211,4.0,9.0,37,0.00,,,0.00,,2013-04-27 22:02:00,
2013-04-27 18:12:00,68.0,41.0,30.11,SSW,211,4.0,9.0,37,0.00,,,0.00,,2013-04-27 22:12:00,
2013-04-27 18:22:00,68.0,43.0,30.10,SSE,163,6.0,16.0,40,0.00,,,0.00,,2013-04-27 22:22:00,
2013-04-27 18:32:00,68.0,42.0,30.10,ESE,122,4.0,11.0,39,0.00,,,0.00,,2013-04-27 22:32:00,
2013-04-27 18:42:00,68.0,42.0,30.10,ESE,122,4.0,11.0,39,0.00,,,0.00,,2013-04-27 22:42:00,
2013-04-27 18:52:00,68.0,43.0,30.10,SE,140,5.0,10.0,40,0.00,,,0.00,,2013-04-27 22:52:00,
2013-04-27 19:02:00,68.0,43.0,30.09,SE,134,3.0,8.0,40,0.00,,,0.00,,2013-04-27 23:02:00,
2013-04-27 19:11:00,68.0,43.0,30.09,SE,134,3.0,8.0,40,0.00,,,0.00,,2013-04-27 23:11:00,
2013-04-27 19:22:00,67.0,43.0,30.09,SSW,198,4.0,12.0,41,0.00,,,0.00,,2013-04-27 23:22:00,
2013-04-27 19:32:00,66.0,42.0,30.09,SE,134,3.0,6.0,42,0.00,,,0.00,,2013-04-27 23:32:00,
2013-04-27 19:42:00,66.0,42.0,30.09,SE,134,3.0,6.0,42,0.00,,,0.00,,2013-04-27 23:42:00,
2013-04-27 19:52:00,66.0,42.0,30.08,SE,136,5.0,10.0,42,0.00,,,0.00,,2013-04-27 23:52:00,
2013-04-27 20:01:00,66.0,42.0,30.08,SE,142,3.0,7.0,42,0.00,,,0.00,,2013-04-28 00:01:00,
2013-04-27 20:11:00,66.0,42.0,30.08,SE,142,3.0,7.0,42,0.00,,,0.00,,2013-04-28 00:11:00,
2013-04-27 20:21:00,65.0,42.0,30.07,SE,146,2.0,9.0,43,0.00,,,0.00,,2013-04-28 00:21:00,
2013-04-27 20:32:00,65.0,43.0,30.07,South,175,1.0,5.0,45,0.00,,,0.00,,2013-04-28 00:32:00,
2013-04-27 20:42:00,65.0,43.0,30.07,South,175,1.0,5.0,45,0.00,,,0.00,,2013-04-28 00:42:00,
2013-04-27 20:52:00,65.0,43.0,30.07,East,95,3.0,8.0,45,0.00,,,0.00,,2013-04-28 00:52:00,
2013-04-27 21:01:00,64.0,44.0,30.07,SE,144,1.0,3.0,48,0.00,,,0.00,,2013-04-28 01:01:00,
2013-04-27 21:11:00,64.0,44.0,30.07,SE,144,1.0,3.0,48,0.00,,,0.00,,2013-04-28 01:11:00,
2013-04-27 21:21:00,63.0,43.0,30.06,SE,145,2.0,6.0,48,0.00,,,0.00,,2013-04-28 01:21:00,
2013-04-27 21:32:00,63.0,44.0,30.06,SE,143,1.0,4.0,50,0.00,,,0.00,,2013-04-28 01:32:00,
2013-04-27 21:42:00,63.0,44.0,30.06,SE,143,1.0,4.0,50,0.00,,,0.00,,2013-04-28 01:42:00,
2013-04-27 21:52:00,63.0,46.0,30.06,SSE,159,0.0,2.0,53,0.00,,,0.00,,2013-04-28 01:52:00,
2013-04-27 22:02:00,62.0,47.0,30.06,SSE,156,0.0,2.0,58,0.00,,,0.00,,2013-04-28 02:02:00,
2013-04-27 22:12:00,62.0,47.0,30.06,SSE,156,0.0,2.0,58,0.00,,,0.00,,2013-04-28 02:12:00,
2013-04-27 22:22:00,61.0,46.0,30.06,South,175,0.0,3.0,58,0.00,,,0.00,,2013-04-28 02:22:00,
2013-04-27 22:32:00,61.0,48.0,30.06,South,175,0.0,3.0,62,0.00,,,0.00,,2013-04-28 02:32:00,
2013-04-27 22:42:00,61.0,48.0,30.06,South,175,0.0,3.0,62,0.00,,,0.00,,2013-04-28 02:42:00,
2013-04-27 22:52:00,60.0,47.0,30.06,SW,217,0.0,3.0,63,0.00,,,0.00,,2013-04-28 02:52:00,
2013-04-27 23:01:00,59.0,48.0,30.06,SSE,155,0.0,2.0,66,0.00,,,0.00,,2013-04-28 03:01:00,
2013-04-27 23:11:00,59.0,48.0,30.06,SSE,155,0.0,2.0,66,0.00,,,0.00,,2013-04-28 03:11:00,
2013-04-27 23:21:00,59.0,48.0,30.06,SSE,155,0.0,1.0,67,0.00,,,0.00,,2013-04-28 03:21:00,
2013-04-27 23:33:00,58.0,47.0,30.06,SSE,155,0.0,0.0,67,0.00,,,0.00,,2013-04-28 03:33:00,
2013-04-27 23:43:00,58.0,47.0,30.06,SSE,155,0.0,0.0,67,0.00,,,0.00,,2013-04-28 03:43:00,
2013-04-27 23:53:00,58.0,48.0,30.05,SSE,155,0.0,0.0,69,0.00,,,0.00,,2013-04-28 03:53:00,